Temperature
12 12 12 11 11 11 12 11 11 12 12 12 12 12 12 12 11 11 11 11 10 10 10 10 10 10 11 10 10 11 11 11 11 11 11 11 11 11 12 12 12 12 12
12 12 12 12 12 12 12 12 12 12 12 12 12 11 11 10 10 10 10 9 9 10 10 10 10 11 10 10 10 10 10 11 11 11 11 11 11 11 11 11 11 11 11
12 11 11 11 11 12 12 12 12 12 12 11 11 10 10 10 10 9 9 9 9 9 10 10 10 10 10 10 10 10 10 11 10 10 10 10 10 10 10 10 11 11 11
11 11 11 11 12 12 12 12 12 11 11 10 10 10 10 10 9 9 9 9 9 9 9 9 10 10 10 10 10 10 9 10 9 9 9 9 9 9 9 9 9 10 10
11 11 11 12 11 11 11 11 10 9 9 9 9 10 10 10 9 9 9 9 9 9 9 9 9 9 9 9 9 9 8 9 8 7 6 6 6 6 7 7 7 7 8
11 11 11 11 11 10 10 10 9 8 7 8 9 9 10 9 9 8 8 8 8 9 9 8 8 8 8 8 9 8 8 8 7 5 6 5 5 5 5 5 5 5 6
12 11 11 11 10 10 10 9 8 8 7 7 8 8 9 9 8 8 8 8 9 9 8 8 8 8 8 8 8 7 7 7 6 4 4 4 4 4 3 4 4 4 5
11 11 10 10 9 9 9 8 7 6 6 6 5 6 6 7 8 8 9 9 8 7 7 7 7 7 7 7 7 7 6 6 5 4 2 3 3 3 3 3 3 3 4
11 10 10 9 9 8 8 7 6 5 5 5 4 3 3 2 2 5 6 6 5 5 5 5 6 6 6 6 6 5 5 5 3 2 2 2 2 2 2 2 2 3 3
10 10 9 9 8 7 6 5 5 4 4 4 3 3 2 1 1 1 3 4 4 4 4 5 4 4 5 5 4 4 3 2 0 0 0 1 1 1 1 1 2 2 2
10 9 9 8 7 6 6 5 4 4 3 3 3 3 2 2 1 -1 -1 2 3 3 3 3 3 3 3 2 2 1 -1 -1 -1 -1 -1 -1 -0 -0 0 1 1 1 2
9 9 8 7 7 6 5 4 4 4 3 3 2 2 1 1 -0 -1 -3 -2 -2 0 1 2 2 1 0 -1 -1 -1 -2 -2 -2 -2 -2 -2 -1 -1 -0 -0 0 0 1
9 8 7 7 6 5 4 4 3 3 3 3 2 2 1 0 -1 -1 -2 -3 -3 -2 -2 -2 -2 -2 -2 -3 -3 -3 -3 -3 -3 -3 -3 -3 -2 -2 -2 -2 -1 -1 -1
8 7 7 6 5 4 4 3 3 3 3 2 2 1 1 -0 -1 -2 -3 -4 -5 -4 -4 -4 -4 -4 -4 -5 -5 -5 -5 -5 -5 -4 -4 -4 -4 -3 -3 -3 -3 -2 -2
7 7 6 5 5 4 3 3 3 2 2 2 1 1 0 -1 -2 -3 -4 -5 -5 -6 -6 -6 -6 -6 -6 -6 -6 -6 -6 -6 -6 -5 -5 -5 -5 -5 -5 -4 -4 -4 -3
7 6 6 5 4 3 3 2 2 2 2 1 1 0 -0 -2 -3 -4 -5 -6 -6 -6 -7 -6 -6 -6 -6 -6 -6 -6 -6 -6 -6 -6 -6 -6 -6 -6 -5 -5 -5 -4 -4
6 6 5 4 3 2 2 2 2 1 1 1 0 -1 -2 -3 -5 -6 -7 -7 -7 -7 -7 -7 -6 -6 -6 -6 -6 -6 -7 -7 -7 -7 -7 -7 -7 -6 -6 -6 -5 -5 -5
5 5 4 3 2 2 2 1 1 1 1 0 -1 -2 -3 -5 -6 -7 -7 -8 -8 -7 -7 -7 -7 -7 -7 -6 -7 -7 -7 -7 -7 -8 -8 -8 -7 -7 -7 -6 -6 -6 -6
5 4 3 2 2 1 1 1 1 1 -0 -1 -2 -4 -5 -6 -6 -7 -8 -8 -8 -8 -8 -8 -7 -7 -7 -7 -7 -8 -8 -8 -9 -9 -9 -9 -8 -8 -7 -7 -7 -7 -6
4 3 2 1 1 1 1 0 0 -0 -1 -2 -4 -5 -6 -6 -7 -8 -8 -8 -8 -8 -7 -8 -8 -7 -8 -8 -8 -8 -9 -9 -9 -9 -9 -9 -9 -9 -9 -8 -8 -8 -7
2 2 1 1 0 0 0 -0 -1 -2 -3 -4 -5 -6 -7 -8 -8 -8 -8 -8 -8 -8 -7 -7 -8 -8 -8 -8 -9 -9 -9 -9 -9 -10 -10 -10 -10 -10 -10 -9 -9 -9 -9
1 1 0 0 0 -0 -1 -1 -2 -4 -5 -5 -6 -7 -8 -8 -8 -8 -8 -8 -8 -8 -8 -8 -9 -9 -9 -9 -9 -9 -10 -10 -10 -10 -10 -10 -10 -10 -10 -9 -9 -9 -8
0 -0 -0 -0 -1 -1 -1 -2 -3 -5 -6 -7 -7 -8 -8 -8 -8 -8 -8 -8 -8 -8 -9 -9 -9 -10 -10 -9 -9 -10 -10 -10 -10 -10 -10 -10 -10 -10 -10 -9 -10 -10 -9
-0 -1 -1 -1 -1 -2 -2 -3 -4 -6 -7 -8 -8 -8 -8 -8 -9 -9 -8 -8 -8 -8 -9 -9 -9 -9 -9 -10 -10 -10 -10 -10 -10 -10 -11 -11 -10 -11 -10 -10 -10 -10 -9
-1 -1 -1 -2 -2 -3 -4 -4 -5 -7 -8 -8 -8 -8 -9 -9 -9 -8 -8 -9 -9 -9 -9 -9 -10 -10 -10 -10 -10 -10 -10 -11 -11 -11 -11 -11 -11 -11 -11 -10 -10 -10 -9
-2 -2 -2 -3 -4 -4 -4 -5 -7 -8 -9 -8 -8 -9 -9 -9 -9 -9 -9 -10 -10 -9 -9 -10 -10 -9 -9 -9 -10 -10 -11 -11 -12 -11 -10 -11 -11 -11 -11 -10 -10 -9 -9
Wind_Speed
3 4 5 8 8 8 7 6 6 6 7 8 9 8 7 10 10 9 11 14 16 15 14 15 14 14 14 13 15 13 13 12 11 10 9 8 7 8 9 11 15 17 18
7 6 6 6 7 8 9 8 5 4 4 5 5 6 6 8 7 9 11 13 16 17 17 16 16 16 15 15 14 13 12 12 11 10 8 8 8 9 10 10 10 10 12
10 8 6 5 6 8 9 8 5 6 6 7 7 6 5 6 6 9 11 12 14 15 17 17 17 17 16 16 15 15 13 13 12 10 9 9 10 10 9 9 10 11 12
12 10 6 5 8 10 8 5 6 5 7 8 7 6 4 3 4 6 9 11 12 12 14 16 17 17 16 16 16 16 14 14 13 12 10 11 11 11 10 11 12 13 14
15 12 7 6 10 8 6 6 6 5 5 8 9 7 5 3 2 4 6 8 9 9 9 11 13 14 14 15 16 17 15 15 16 13 12 13 14 13 13 14 15 15 15
16 14 8 8 9 6 7 6 5 5 3 6 8 8 6 2 1 4 5 4 5 6 6 6 8 9 11 12 16 18 16 18 16 12 13 15 14 14 15 16 17 17 17
15 12 7 7 6 6 6 6 4 5 5 6 5 6 5 3 4 4 3 2 2 4 3 5 7 9 9 8 13 17 17 17 15 14 17 17 16 16 17 19 20 20 21
14 11 7 7 6 6 8 8 6 3 4 6 4 4 5 6 5 8 5 2 4 5 5 10 13 13 11 9 12 15 16 15 14 17 18 17 17 19 21 23 24 25 25
13 12 10 7 5 7 6 6 4 5 4 4 5 4 4 4 5 6 5 5 7 5 6 8 10 12 14 13 14 12 13 14 15 17 18 20 22 23 25 27 28 28 28
12 12 11 10 7 6 6 4 4 3 3 3 3 3 1 3 4 6 5 6 6 7 7 7 7 12 15 13 14 14 14 13 16 19 21 24 26 29 31 31 31 30 29
9 11 12 10 6 5 6 5 5 4 2 1 1 2 2 2 2 3 7 8 10 7 7 6 7 11 15 14 12 11 10 15 18 21 24 28 31 32 33 32 32 32 32
5 8 10 9 7 5 5 4 4 3 2 2 1 1 1 1 3 3 6 12 13 8 8 8 9 8 11 11 11 11 13 18 22 26 30 31 32 33 33 33 34 34 34
4 5 5 6 5 5 5 4 3 3 2 2 1 1 1 2 2 3 6 9 11 9 6 6 6 5 10 12 13 14 18 25 28 30 32 33 34 34 33 34 36 37 38
5 5 6 7 6 5 4 3 3 3 2 3 3 3 2 3 2 3 4 8 13 8 6 6 4 5 8 12 17 22 19 25 29 31 33 34 34 33 34 37 38 39 40
6 6 7 6 5 5 4 3 3 3 3 2 3 3 3 4 4 4 5 6 7 10 11 7 5 8 6 11 17 17 13 21 28 32 34 33 33 36 40 40 40 41 42
7 8 7 6 4 4 4 4 3 3 4 4 3 4 5 4 5 5 5 6 7 10 12 11 13 10 9 8 17 18 17 26 29 32 32 33 36 39 40 40 40 39 38
7 7 6 5 4 5 4 4 5 5 6 6 6 6 7 7 6 6 6 6 7 9 15 18 14 11 13 11 10 11 14 14 16 28 34 35 36 37 38 39 37 36 35
7 7 6 5 5 5 5 5 6 7 7 7 8 7 8 8 7 7 7 9 10 10 11 18 17 13 14 13 11 11 10 12 11 25 31 34 35 35 35 33 32 34 35
7 7 6 6 5 5 5 5 6 7 7 7 7 8 8 9 8 8 10 10 10 10 9 13 16 15 13 10 11 12 12 11 11 20 27 29 30 32 31 32 34 34 34
7 6 6 5 5 5 6 7 6 6 6 7 7 8 8 8 10 11 10 10 9 10 11 12 14 13 10 10 10 12 12 12 12 12 17 20 25 28 31 32 33 33 33
6 5 5 5 6 6 7 8 5 5 5 7 8 8 9 13 17 15 14 13 13 13 13 11 12 10 11 12 13 13 16 15 13 10 11 11 12 13 17 24 27 30 31
5 5 5 7 7 6 10 13 11 4 5 7 9 9 10 13 15 21 26 26 23 17 13 11 12 14 14 14 14 13 15 15 16 7 10 13 12 13 13 13 25 32 33
4 5 6 6 6 7 12 15 16 6 6 8 10 10 10 11 15 14 22 25 16 20 20 16 15 16 16 16 16 15 14 15 16 13 13 16 13 14 14 16 30 33 34
4 4 5 6 6 8 14 16 17 7 7 9 11 11 11 12 13 19 16 12 10 10 14 14 13 15 15 15 15 16 17 16 16 13 11 17 16 15 15 15 29 33 33
3 4 4 6 7 8 14 18 16 7 8 10 10 10 11 12 20 27 18 13 11 11 17 20 19 22 27 27 21 14 12 14 17 16 13 13 16 16 16 14 15 26 29
3 5 6 6 8 8 14 18 17 7 8 9 8 8 13 17 25 27 18 13 12 15 13 10 13 17 17 18 22 14 12 14 16 14 11 10 14 13 11 9 8 10 15
Wind_Direction
119 107 80 71 68 68 66 55 45 42 31 18 16 17 11 359 1 7 10 19 28 23 26 23 17 11 5 18 23 25 26 21 17 18 22 21 16 2 333 302 282 280 278
116 98 77 67 62 63 60 60 53 45 33 13 3 7 7 2 15 18 21 26 28 28 27 22 15 7 9 6 1 8 8 6 359 357 4 5 352 340 335 337 327 311 300
106 97 89 75 64 64 63 56 44 42 31 12 353 346 359 360 28 28 31 34 28 28 27 22 17 12 8 0 359 356 357 352 348 347 352 346 335 329 329 331 330 325 317
111 104 95 81 67 59 52 45 29 24 22 5 335 328 350 351 31 29 39 35 28 28 24 22 19 13 7 2 358 351 351 347 342 339 335 329 325 323 319 316 314 312 310
109 102 91 80 68 54 44 37 29 25 16 353 329 319 338 326 51 28 36 30 25 21 14 13 12 7 1 356 354 346 343 337 324 317 315 314 310 307 305 303 301 299 300
107 100 89 76 68 57 40 30 26 16 12 339 323 317 328 338 0 23 26 13 7 360 349 349 349 349 350 347 349 341 336 329 322 323 318 310 305 305 304 301 297 294 292
104 98 92 80 71 70 58 38 23 19 2 344 341 330 331 341 299 304 333 316 311 304 313 329 329 322 327 331 340 336 332 325 322 320 313 310 307 306 305 302 298 295 293
101 98 93 85 82 78 58 44 35 13 360 11 5 334 342 336 347 316 321 327 346 341 339 332 326 315 311 314 325 331 328 320 316 313 310 309 307 307 305 303 300 296 293
97 96 94 90 78 72 66 53 36 45 9 356 23 29 352 316 316 308 323 341 336 327 305 304 298 297 299 302 312 318 316 309 310 310 309 308 305 303 302 299 295 292 289
96 96 91 83 75 71 66 56 51 48 53 13 343 15 306 271 299 311 309 309 314 301 280 277 274 283 289 288 293 301 299 298 305 307 309 304 303 301 298 293 289 288 288
92 91 86 81 76 72 67 55 50 50 67 81 344 321 319 297 276 286 295 305 307 291 274 257 268 283 283 285 287 285 283 299 302 306 304 303 301 297 294 291 291 290 288
85 79 83 81 75 67 60 52 48 48 47 45 4 261 257 289 297 287 291 305 304 298 290 283 277 269 273 278 291 293 293 300 304 304 302 298 297 295 294 293 292 290 288
90 85 80 74 66 62 57 46 32 16 17 360 334 305 265 239 244 270 295 305 303 304 286 278 266 283 297 306 304 300 304 306 305 303 300 299 298 296 296 296 294 291 288
110 103 86 76 68 57 45 30 15 342 346 337 316 286 254 248 244 256 280 304 311 303 299 288 272 278 298 300 305 301 302 300 301 300 298 298 297 298 299 295 292 291 288
107 93 82 75 58 43 28 13 358 339 340 323 293 272 242 246 237 248 257 269 286 303 308 298 297 300 285 287 288 293 291 291 293 295 295 295 296 296 294 292 291 288 283
94 88 80 70 50 29 16 9 351 336 339 319 290 272 260 237 244 255 256 260 258 275 288 299 300 290 281 272 282 287 284 286 289 290 289 291 292 293 291 290 287 283 282
94 90 83 67 41 24 13 7 350 330 333 320 307 291 278 263 251 255 260 263 262 265 281 294 298 296 290 288 285 279 272 269 279 286 287 289 290 289 287 286 285 286 286
97 90 78 59 35 16 9 6 340 331 327 315 306 303 293 287 266 265 273 272 267 264 274 290 298 301 297 298 293 284 279 276 269 277 281 287 290 292 291 290 290 289 287
91 76 64 47 26 6 357 340 329 324 317 309 307 303 295 289 284 281 279 277 275 275 274 282 292 298 298 299 295 290 287 282 276 279 285 290 292 293 292 293 293 290 287
82 67 57 44 17 357 344 330 326 320 324 323 312 300 295 292 288 282 283 287 296 296 290 286 285 291 297 299 297 300 299 293 290 289 287 287 290 291 291 292 291 289 288
76 65 48 25 11 356 339 324 319 328 332 313 301 298 295 299 306 309 310 310 305 298 295 295 301 305 306 307 303 301 297 298 292 293 290 288 287 284 281 282 281 282 281
66 51 26 12 1 344 326 328 329 323 310 306 301 290 285 291 301 312 311 307 306 308 314 310 305 304 303 299 296 296 296 300 301 299 293 294 289 284 281 277 279 280 280
50 35 16 0 336 324 329 331 326 317 292 293 288 287 295 303 308 299 298 303 305 311 308 304 298 293 292 292 294 297 296 295 295 301 299 293 290 284 281 275 281 282 282
33 15 349 338 332 331 333 328 323 317 288 279 280 282 289 294 295 301 308 314 303 286 290 293 289 289 291 296 298 300 299 294 290 292 291 290 293 285 285 277 282 281 283
17 340 329 338 334 320 328 330 324 301 284 279 279 280 286 289 304 316 324 316 311 305 303 303 302 305 306 306 307 305 301 300 299 300 297 287 291 291 288 279 272 279 281
347 341 336 330 318 315 326 329 322 307 291 292 284 270 293 311 317 324 326 326 319 310 308 311 311 306 304 301 306 306 301 296 298 301 302 300 298 301 298 284 283 280 279
Height
1515 1516 1516 1516 1516 1516 1515 1512 1511 1509 1507 1506 1504 1502 1499 1497 1495 1493 1492 1490 1490 1490 1489 1488 1487 1486 1486 1484 1482 1481 1479 1478 1478 1478 1476 1475 1475 1475 1476 1475 1475 1475 1474
1515 1515 1515 1515 1515 1514 1512 1509 1509 1506 1503 1502 1501 1498 1495 1492 1490 1489 1488 1488 1487 1487 1485 1485 1483 1483 1482 1481 1480 1478 1477 1476 1476 1474 1472 1472 1472 1472 1471 1470 1469 1468 1467
1513 1513 1514 1514 1513 1511 1510 1507 1506 1503 1500 1498 1497 1495 1492 1490 1488 1487 1486 1486 1485 1484 1483 1482 1481 1480 1478 1478 1476 1475 1473 1472 1471 1469 1467 1467 1467 1466 1464 1464 1464 1463 1462
1511 1512 1512 1512 1511 1510 1507 1505 1503 1499 1496 1494 1494 1492 1489 1487 1485 1485 1484 1484 1483 1482 1481 1479 1478 1476 1475 1473 1471 1470 1468 1467 1465 1464 1462 1460 1460 1459 1458 1457 1456 1455 1455
1510 1511 1511 1511 1509 1508 1504 1501 1499 1495 1492 1491 1491 1489 1486 1484 1483 1483 1482 1481 1481 1479 1478 1477 1475 1473 1471 1469 1467 1465 1462 1460 1459 1458 1456 1454 1453 1452 1451 1450 1449 1448 1448
1508 1509 1509 1508 1506 1505 1501 1499 1496 1493 1490 1489 1488 1486 1483 1481 1481 1481 1480 1479 1479 1477 1476 1474 1472 1469 1467 1464 1461 1459 1456 1454 1453 1452 1449 1448 1447 1445 1443 1443 1442 1441 1440
1507 1507 1507 1505 1504 1502 1498 1496 1495 1492 1490 1487 1484 1482 1481 1480 1479 1477 1477 1476 1475 1474 1472 1470 1468 1465 1462 1459 1456 1452 1449 1448 1447 1444 1443 1441 1440 1438 1437 1436 1434 1433 1432
1505 1506 1505 1503 1501 1500 1497 1496 1494 1492 1489 1485 1482 1479 1478 1476 1475 1476 1474 1473 1471 1470 1468 1465 1462 1459 1456 1453 1449 1445 1442 1440 1438 1437 1435 1434 1433 1431 1429 1428 1426 1425 1423
1504 1504 1503 1500 1500 1499 1496 1495 1493 1490 1488 1486 1484 1483 1480 1476 1470 1466 1468 1465 1464 1461 1459 1457 1454 1452 1449 1445 1441 1436 1434 1432 1429 1428 1427 1426 1425 1423 1421 1419 1417 1416 1414
1502 1501 1500 1499 1498 1497 1496 1494 1491 1489 1487 1485 1484 1483 1481 1478 1473 1463 1459 1459 1456 1453 1450 1448 1446 1444 1441 1437 1433 1428 1425 1423 1421 1421 1419 1418 1416 1414 1412 1410 1408 1406 1404
1499 1498 1498 1497 1497 1496 1495 1492 1490 1488 1486 1483 1481 1479 1477 1474 1472 1467 1456 1450 1447 1445 1442 1439 1437 1434 1432 1429 1425 1421 1418 1416 1414 1412 1411 1409 1407 1404 1402 1399 1397 1395 1394
1496 1496 1496 1496 1495 1494 1492 1490 1488 1487 1484 1482 1479 1477 1474 1471 1468 1463 1456 1446 1438 1435 1433 1431 1430 1427 1424 1422 1419 1416 1412 1410 1407 1404 1402 1399 1396 1393 1391 1388 1385 1383 1381
1494 1495 1495 1494 1494 1492 1490 1488 1487 1484 1482 1479 1477 1474 1471 1468 1465 1462 1456 1446 1435 1427 1423 1421 1421 1420 1417 1416 1414 1410 1406 1403 1399 1395 1391 1388 1385 1382 1379 1375 1373 1370 1368
1493 1493 1493 1492 1491 1490 1488 1486 1484 1481 1479 1477 1474 1471 1468 1465 1462 1459 1454 1446 1432 1422 1418 1416 1412 1412 1411 1410 1408 1404 1399 1395 1390 1386 1382 1378 1374 1370 1367 1364 1360 1357 1355
1491 1491 1490 1490 1489 1487 1485 1483 1481 1479 1477 1473 1470 1467 1463 1460 1457 1454 1450 1445 1439 1424 1410 1409 1408 1405 1403 1400 1398 1395 1391 1387 1383 1378 1372 1367 1363 1359 1355 1350 1346 1343 1340
1489 1488 1488 1487 1486 1484 1481 1480 1477 1475 1472 1469 1466 1462 1459 1455 1451 1448 1444 1441 1436 1428 1413 1406 1402 1399 1395 1393 1390 1386 1382 1379 1374 1368 1362 1358 1353 1347 1342 1337 1333 1329 1326
1486 1486 1485 1484 1483 1480 1478 1475 1473 1471 1468 1465 1461 1458 1454 1450 1446 1442 1438 1434 1429 1424 1413 1400 1398 1393 1389 1386 1381 1377 1372 1368 1362 1357 1352 1347 1342 1336 1330 1325 1320 1316 1313
1483 1483 1482 1480 1479 1476 1473 1471 1469 1466 1463 1459 1456 1451 1448 1443 1439 1436 1432 1427 1422 1418 1411 1399 1391 1387 1382 1378 1372 1367 1361 1357 1351 1345 1340 1335 1330 1324 1318 1313 1309 1305 1301
1480 1479 1477 1476 1475 1473 1470 1467 1464 1461 1458 1454 1450 1445 1440 1437 1432 1428 1424 1419 1415 1410 1405 1397 1387 1381 1375 1370 1363 1357 1352 1345 1338 1333 1329 1324 1318 1313 1308 1303 1299 1294 1290
1476 1475 1474 1473 1471 1469 1466 1463 1459 1457 1453 1448 1444 1439 1435 1430 1426 1421 1417 1413 1409 1404 1398 1390 1382 1374 1368 1363 1358 1350 1341 1336 1328 1324 1317 1311 1308 1302 1297 1292 1287 1282 1278
1472 1472 1471 1470 1468 1465 1462 1459 1454 1450 1446 1441 1437 1433 1429 1425 1421 1417 1413 1408 1402 1396 1390 1382 1376 1369 1364 1357 1351 1344 1335 1326 1319 1317 1308 1301 1296 1289 1282 1278 1273 1268 1265
1470 1469 1468 1466 1463 1461 1458 1454 1450 1445 1440 1436 1432 1427 1423 1419 1414 1410 1406 1400 1396 1391 1385 1378 1370 1363 1357 1351 1345 1338 1330 1322 1310 1308 1302 1291 1287 1278 1271 1265 1260 1257 1254
1467 1466 1463 1461 1459 1456 1453 1448 1444 1439 1434 1430 1426 1422 1417 1413 1408 1401 1395 1391 1387 1384 1380 1374 1364 1356 1351 1345 1339 1331 1324 1316 1307 1299 1294 1281 1275 1266 1260 1253 1248 1244 1241
1464 1462 1460 1457 1454 1451 1446 1442 1437 1433 1429 1426 1422 1417 1411 1405 1399 1395 1389 1384 1379 1374 1370 1363 1358 1352 1347 1341 1334 1327 1318 1309 1299 1292 1287 1275 1266 1257 1249 1242 1236 1232 1228
1460 1458 1456 1452 1449 1445 1441 1436 1431 1427 1424 1420 1416 1411 1406 1400 1395 1391 1385 1377 1369 1364 1360 1356 1351 1346 1340 1333 1327 1320 1311 1303 1291 1283 1278 1270 1258 1249 1240 1231 1226 1222 1218
1456 1454 1451 1448 1444 1439 1435 1431 1426 1423 1419 1414 1410 1406 1402 1396 1390 1385 1379 1371 1363 1357 1352 1346 1341 1337 1331 1325 1320 1314 1306 1297 1288 1277 1270 1264 1254 1247 1234 1224 1219 1212 1206